Time,TemperatureF,DewpointF,PressureIn,WindDirection,WindDirectionDegrees,WindSpeedMPH,WindSpeedGustMPH,Humidity,HourlyPrecipIn,Conditions,Clouds,dailyrainin,SoftwareType,DateUTC
2013-09-07 00:04:00,70.2,62.0,29.85,SSW,202,0.0,0.0,76,0.00,,,0.00,Rainwise IP-100,2013-09-07 07:04:00,
2013-09-07 00:09:00,70.0,62.0,29.85,SSW,202,0.0,1.0,76,0.00,,,0.00,Rainwise IP-100,2013-09-07 07:09:00,
2013-09-07 00:14:00,69.9,62.0,29.85,SSW,202,0.0,1.0,76,0.00,,,0.00,Rainwise IP-100,2013-09-07 07:14:00,
2013-09-07 00:19:00,69.9,62.0,29.85,SSW,202,0.0,1.0,76,0.00,,,0.00,Rainwise IP-100,2013-09-07 07:19:00,
2013-09-07 00:24:00,69.9,62.0,29.85,SSW,202,0.0,0.0,76,0.00,,,0.00,Rainwise IP-100,2013-09-07 07:24:00,
2013-09-07 00:29:00,69.8,62.0,29.86,SSW,202,0.0,0.0,77,0.00,,,0.00,Rainwise IP-100,2013-09-07 07:29:00,
2013-09-07 00:34:00,69.6,62.0,29.85,SSW,202,0.0,0.0,78,0.00,,,0.00,Rainwise IP-100,2013-09-07 07:34:00,
2013-09-07 00:39:00,69.5,62.0,29.85,SSW,202,0.0,0.0,78,0.00,,,0.00,Rainwise IP-100,2013-09-07 07:39:00,
2013-09-07 00:44:00,69.3,62.0,29.85,SSW,202,0.0,0.0,79,0.00,,,0.00,Rainwise IP-100,2013-09-07 07:44:00,
2013-09-07 00:49:00,69.2,62.0,29.85,SSW,202,0.0,0.0,79,0.00,,,0.00,Rainwise IP-100,2013-09-07 07:49:00,
2013-09-07 00:54:00,69.0,62.0,29.86,SSW,202,0.0,1.0,80,0.00,,,0.00,Rainwise IP-100,2013-09-07 07:54:00,
2013-09-07 00:59:00,69.0,62.0,29.86,SSW,202,0.0,1.0,80,0.00,,,0.00,Rainwise IP-100,2013-09-07 07:59:00,
2013-09-07 01:04:00,69.0,62.0,29.86,SSW,202,1.2,1.2,80,0.00,,,0.00,Rainwise IP-100,2013-09-07 08:04:00,
2013-09-07 01:09:00,69.1,62.0,29.86,SSW,202,0.0,1.0,80,0.00,,,0.00,Rainwise IP-100,2013-09-07 08:09:00,
2013-09-07 01:14:00,69.2,63.0,29.86,SSW,202,0.0,0.0,80,0.00,,,0.00,Rainwise IP-100,2013-09-07 08:14:00,
2013-09-07 01:19:00,69.1,62.0,29.86,SSW,202,0.0,0.0,80,0.00,,,0.00,Rainwise IP-100,2013-09-07 08:19:00,
2013-09-07 01:24:00,68.9,63.0,29.86,SSW,202,0.0,0.0,81,0.00,,,0.00,Rainwise IP-100,2013-09-07 08:24:00,
2013-09-07 01:29:00,68.8,62.0,29.85,SSW,202,0.0,0.0,82,0.00,,,0.00,Rainwise IP-100,2013-09-07 08:29:00,
2013-09-07 01:34:00,68.5,62.0,29.86,SSW,202,1.4,1.4,82,0.00,,,0.00,Rainwise IP-100,2013-09-07 08:34:00,
2013-09-07 01:39:00,68.4,62.0,29.86,SSW,202,2.6,2.6,82,0.00,,,0.00,Rainwise IP-100,2013-09-07 08:39:00,
2013-09-07 01:44:00,68.9,63.0,29.86,SSW,202,0.0,3.0,82,0.00,,,0.00,Rainwise IP-100,2013-09-07 08:44:00,
2013-09-07 01:49:00,69.2,64.0,29.86,SSW,202,0.0,1.0,83,0.00,,,0.00,Rainwise IP-100,2013-09-07 08:49:00,
2013-09-07 01:54:00,69.3,64.0,29.86,SSW,202,1.2,1.2,83,0.00,,,0.00,Rainwise IP-100,2013-09-07 08:54:00,
2013-09-07 01:59:00,69.6,64.0,29.85,SSW,202,0.0,2.0,82,0.00,,,0.00,Rainwise IP-100,2013-09-07 08:59:00,
2013-09-07 02:04:00,69.7,64.0,29.85,SSW,202,0.0,1.0,82,0.00,,,0.00,Rainwise IP-100,2013-09-07 09:04:00,
2013-09-07 02:09:00,69.7,64.0,29.85,SSW,202,0.0,1.0,82,0.00,,,0.00,Rainwise IP-100,2013-09-07 09:09:00,
2013-09-07 02:14:00,69.5,64.0,29.85,SSW,202,0.0,0.0,83,0.00,,,0.00,Rainwise IP-100,2013-09-07 09:14:00,
2013-09-07 02:19:00,69.1,64.0,29.85,SE,135,0.0,0.0,84,0.00,,,0.00,Rainwise IP-100,2013-09-07 09:19:00,
2013-09-07 02:24:00,68.9,64.0,29.85,SE,135,0.0,0.0,85,0.00,,,0.00,Rainwise IP-100,2013-09-07 09:24:00,
2013-09-07 02:29:00,68.7,64.0,29.85,SE,135,0.0,0.0,86,0.00,,,0.00,Rainwise IP-100,2013-09-07 09:29:00,
2013-09-07 02:34:00,68.4,64.0,29.84,SE,135,0.0,0.0,86,0.00,,,0.00,Rainwise IP-100,2013-09-07 09:34:00,
2013-09-07 02:39:00,68.0,63.0,29.85,SE,135,0.0,0.0,86,0.00,,,0.00,Rainwise IP-100,2013-09-07 09:39:00,
2013-09-07 02:44:00,67.8,63.0,29.85,SE,135,0.0,0.0,86,0.00,,,0.00,Rainwise IP-100,2013-09-07 09:44:00,
2013-09-07 02:49:00,67.6,63.0,29.85,SE,135,0.0,0.0,87,0.00,,,0.00,Rainwise IP-100,2013-09-07 09:49:00,
2013-09-07 02:54:00,67.3,63.0,29.85,SE,135,0.0,0.0,87,0.00,,,0.00,Rainwise IP-100,2013-09-07 09:54:00,
2013-09-07 02:59:00,67.1,63.0,29.85,SE,135,0.0,0.0,87,0.00,,,0.00,Rainwise IP-100,2013-09-07 09:59:00,
2013-09-07 03:05:00,67.1,63.0,29.84,SE,135,0.0,0.0,87,0.00,,,0.00,Rainwise IP-100,2013-09-07 10:05:00,
2013-09-07 03:10:00,67.1,63.0,29.84,SE,135,0.0,0.0,87,0.00,,,0.00,Rainwise IP-100,2013-09-07 10:10:00,
2013-09-07 03:15:00,67.0,63.0,29.84,SE,135,0.0,0.0,88,0.00,,,0.00,Rainwise IP-100,2013-09-07 10:15:00,
2013-09-07 03:20:00,67.0,63.0,29.84,SW,225,1.4,0.0,88,0.00,,,0.00,Rainwise IP-100,2013-09-07 10:20:00,
2013-09-07 03:25:00,67.2,63.0,29.84,WSW,247,0.0,1.0,88,0.00,,,0.00,Rainwise IP-100,2013-09-07 10:25:00,
2013-09-07 03:30:00,67.2,63.0,29.84,WSW,247,0.0,0.0,88,0.00,,,0.00,Rainwise IP-100,2013-09-07 10:30:00,
2013-09-07 03:35:00,67.2,63.0,29.83,WSW,247,0.0,1.0,88,0.00,,,0.00,Rainwise IP-100,2013-09-07 10:35:00,
2013-09-07 03:40:00,67.2,63.0,29.84,WSW,247,0.0,1.0,88,0.00,,,0.00,Rainwise IP-100,2013-09-07 10:40:00,
2013-09-07 03:45:00,67.2,63.0,29.84,WSW,247,0.0,1.0,88,0.00,,,0.00,Rainwise IP-100,2013-09-07 10:45:00,
2013-09-07 03:50:00,67.1,63.0,29.84,WSW,247,0.0,1.0,88,0.00,,,0.00,Rainwise IP-100,2013-09-07 10:50:00,
2013-09-07 03:55:00,67.0,63.0,29.84,WSW,247,0.0,1.0,88,0.00,,,0.00,Rainwise IP-100,2013-09-07 10:55:00,
2013-09-07 04:00:00,66.9,63.0,29.84,WSW,247,0.0,0.0,88,0.00,,,0.00,Rainwise IP-100,2013-09-07 11:00:00,
2013-09-07 04:05:00,66.8,63.0,29.84,WSW,247,0.0,0.0,88,0.00,,,0.00,Rainwise IP-100,2013-09-07 11:05:00,
2013-09-07 04:10:00,66.7,63.0,29.84,WSW,247,0.0,0.0,88,0.00,,,0.00,Rainwise IP-100,2013-09-07 11:10:00,
2013-09-07 04:15:00,66.7,63.0,29.84,WSW,247,0.0,1.0,88,0.00,,,0.00,Rainwise IP-100,2013-09-07 11:15:00,
2013-09-07 04:20:00,66.8,63.0,29.83,WSW,247,0.0,0.0,89,0.00,,,0.00,Rainwise IP-100,2013-09-07 11:20:00,
2013-09-07 04:25:00,66.7,63.0,29.83,WSW,247,0.0,0.0,89,0.00,,,0.00,Rainwise IP-100,2013-09-07 11:25:00,
2013-09-07 04:30:00,66.6,63.0,29.83,WSW,247,0.0,0.0,89,0.00,,,0.00,Rainwise IP-100,2013-09-07 11:30:00,
2013-09-07 04:35:00,66.6,63.0,29.83,WSW,247,0.0,0.0,89,0.00,,,0.00,Rainwise IP-100,2013-09-07 11:35:00,
2013-09-07 04:40:00,66.6,63.0,29.83,WSW,247,0.0,0.0,89,0.00,,,0.00,Rainwise IP-100,2013-09-07 11:40:00,
2013-09-07 04:45:00,66.5,63.0,29.84,WSW,247,0.0,0.0,89,0.00,,,0.00,Rainwise IP-100,2013-09-07 11:45:00,
2013-09-07 04:50:00,66.6,63.0,29.83,WSW,247,0.0,0.0,89,0.00,,,0.00,Rainwise IP-100,2013-09-07 11:50:00,
2013-09-07 04:55:00,66.8,63.0,29.84,WSW,247,0.0,0.0,89,0.00,,,0.00,Rainwise IP-100,2013-09-07 11:55:00,
2013-09-07 05:00:00,66.8,63.0,29.84,WSW,247,0.0,0.0,89,0.00,,,0.00,Rainwise IP-100,2013-09-07 12:00:00,
2013-09-07 05:05:00,66.8,63.0,29.84,WSW,247,0.0,0.0,89,0.00,,,0.00,Rainwise IP-100,2013-09-07 12:05:00,
2013-09-07 05:10:00,66.8,63.0,29.84,WSW,247,0.0,0.0,89,0.00,,,0.00,Rainwise IP-100,2013-09-07 12:10:00,
2013-09-07 05:15:00,66.7,63.0,29.84,WSW,247,0.0,0.0,89,0.00,,,0.00,Rainwise IP-100,2013-09-07 12:15:00,
2013-09-07 05:20:00,66.6,63.0,29.84,WSW,247,0.0,0.0,89,0.00,,,0.00,Rainwise IP-100,2013-09-07 12:20:00,
2013-09-07 05:25:00,66.6,63.0,29.84,WSW,247,0.0,1.0,89,0.00,,,0.00,Rainwise IP-100,2013-09-07 12:25:00,
2013-09-07 05:30:00,66.6,63.0,29.85,WSW,247,0.0,0.0,88,0.00,,,0.00,Rainwise IP-100,2013-09-07 12:30:00,
2013-09-07 05:35:00,66.6,63.0,29.85,West,270,1.6,1.6,88,0.00,,,0.00,Rainwise IP-100,2013-09-07 12:35:00,
2013-09-07 05:40:00,66.7,63.0,29.85,WNW,292,1.9,3.0,88,0.00,,,0.00,Rainwise IP-100,2013-09-07 12:40:00,
2013-09-07 05:45:00,67.1,63.0,29.84,WNW,292,1.4,2.0,87,0.00,,,0.00,Rainwise IP-100,2013-09-07 12:45:00,
2013-09-07 05:50:00,67.5,63.0,29.84,WNW,292,0.0,1.0,85,0.00,,,0.00,Rainwise IP-100,2013-09-07 12:50:00,
2013-09-07 05:55:00,67.8,62.0,29.85,WNW,292,0.0,0.0,84,0.00,,,0.00,Rainwise IP-100,2013-09-07 12:55:00,
2013-09-07 06:00:00,67.7,62.0,29.85,WNW,292,0.0,0.0,84,0.00,,,0.00,Rainwise IP-100,2013-09-07 13:00:00,
2013-09-07 06:05:00,67.7,62.0,29.85,WNW,292,0.0,1.0,84,0.00,,,0.00,Rainwise IP-100,2013-09-07 13:05:00,
2013-09-07 06:10:00,67.8,62.0,29.85,WNW,292,0.0,0.0,84,0.00,,,0.00,Rainwise IP-100,2013-09-07 13:10:00,
2013-09-07 06:15:00,67.9,62.0,29.85,WNW,292,1.2,1.2,83,0.00,,,0.00,Rainwise IP-100,2013-09-07 13:15:00,
2013-09-07 06:20:00,67.7,62.0,29.85,WNW,292,0.0,1.0,83,0.00,,,0.00,Rainwise IP-100,2013-09-07 13:20:00,
2013-09-07 06:25:00,67.6,62.0,29.85,WNW,292,0.0,0.0,82,0.00,,,0.00,Rainwise IP-100,2013-09-07 13:25:00,
2013-09-07 06:30:00,67.4,62.0,29.86,WNW,292,1.2,0.0,83,0.00,,,0.00,Rainwise IP-100,2013-09-07 13:30:00,
2013-09-07 06:35:00,67.1,62.0,29.86,WNW,292,0.0,1.0,84,0.00,,,0.00,Rainwise IP-100,2013-09-07 13:35:00,
2013-09-07 06:40:00,66.8,62.0,29.86,WNW,292,0.0,0.0,85,0.00,,,0.00,Rainwise IP-100,2013-09-07 13:40:00,
2013-09-07 06:45:00,66.5,61.0,29.86,WNW,292,0.0,0.0,84,0.00,,,0.00,Rainwise IP-100,2013-09-07 13:45:00,
2013-09-07 06:50:00,66.3,61.0,29.86,WNW,292,1.2,0.0,84,0.00,,,0.00,Rainwise IP-100,2013-09-07 13:50:00,
2013-09-07 06:55:00,66.4,61.0,29.86,WNW,292,0.0,1.0,85,0.00,,,0.00,Rainwise IP-100,2013-09-07 13:55:00,
2013-09-07 07:00:00,66.9,62.0,29.86,WNW,292,0.0,0.0,85,0.00,,,0.00,Rainwise IP-100,2013-09-07 14:00:00,
2013-09-07 07:05:00,67.4,63.0,29.86,WNW,292,0.0,0.0,85,0.00,,,0.00,Rainwise IP-100,2013-09-07 14:05:00,
2013-09-07 07:10:00,68.1,63.0,29.86,WNW,292,0.0,0.0,85,0.00,,,0.00,Rainwise IP-100,2013-09-07 14:10:00,
2013-09-07 07:15:00,68.9,64.0,29.86,WNW,292,0.0,0.0,85,0.00,,,0.00,Rainwise IP-100,2013-09-07 14:15:00,
2013-09-07 07:20:00,69.7,64.0,29.86,WNW,292,0.0,0.0,84,0.00,,,0.00,Rainwise IP-100,2013-09-07 14:20:00,
2013-09-07 07:25:00,70.5,65.0,29.86,WNW,292,0.0,0.0,83,0.00,,,0.00,Rainwise IP-100,2013-09-07 14:25:00,
2013-09-07 07:30:00,71.4,65.0,29.86,WNW,292,0.0,0.0,80,0.00,,,0.00,Rainwise IP-100,2013-09-07 14:30:00,
2013-09-07 07:35:00,72.2,65.0,29.86,WNW,292,0.0,0.0,78,0.00,,,0.00,Rainwise IP-100,2013-09-07 14:35:00,
2013-09-07 07:40:00,73.0,65.0,29.87,WNW,292,0.0,0.0,77,0.00,,,0.00,Rainwise IP-100,2013-09-07 14:40:00,
2013-09-07 07:45:00,74.1,66.0,29.87,WNW,292,0.0,0.0,75,0.00,,,0.00,Rainwise IP-100,2013-09-07 14:45:00,
2013-09-07 07:50:00,75.0,66.0,29.86,WNW,292,0.0,0.0,73,0.00,,,0.00,Rainwise IP-100,2013-09-07 14:50:00,
2013-09-07 07:55:00,75.8,66.0,29.86,WNW,292,0.0,0.0,72,0.00,,,0.00,Rainwise IP-100,2013-09-07 14:55:00,
2013-09-07 08:00:00,76.8,66.0,29.86,WNW,292,0.0,0.0,70,0.00,,,0.00,Rainwise IP-100,2013-09-07 15:00:00,
2013-09-07 08:05:00,77.9,66.0,29.86,WNW,292,0.0,0.0,68,0.00,,,0.00,Rainwise IP-100,2013-09-07 15:05:00,
2013-09-07 08:10:00,78.8,66.0,29.86,WNW,292,0.0,0.0,67,0.00,,,0.00,Rainwise IP-100,2013-09-07 15:10:00,
2013-09-07 08:15:00,79.6,66.0,29.86,NNE,22,0.0,0.0,65,0.00,,,0.00,Rainwise IP-100,2013-09-07 15:15:00,
2013-09-07 08:20:00,80.4,66.0,29.86,North,360,0.0,2.0,63,0.00,,,0.00,Rainwise IP-100,2013-09-07 15:20:00,
2013-09-07 08:25:00,81.0,67.0,29.86,North,360,0.0,0.0,63,0.00,,,0.00,Rainwise IP-100,2013-09-07 15:25:00,
2013-09-07 08:30:00,81.9,67.0,29.85,North,360,0.0,0.0,61,0.00,,,0.00,Rainwise IP-100,2013-09-07 15:30:00,
2013-09-07 08:35:00,82.9,67.0,29.86,North,360,0.0,0.0,59,0.00,,,0.00,Rainwise IP-100,2013-09-07 15:35:00,
2013-09-07 08:40:00,83.8,67.0,29.86,North,360,1.2,1.2,57,0.00,,,0.00,Rainwise IP-100,2013-09-07 15:40:00,
2013-09-07 08:45:00,84.4,66.0,29.86,North,360,0.0,1.0,55,0.00,,,0.00,Rainwise IP-100,2013-09-07 15:45:00,
2013-09-07 08:50:00,84.6,66.0,29.86,SSE,157,1.4,2.0,54,0.00,,,0.00,Rainwise IP-100,2013-09-07 15:50:00,
2013-09-07 08:55:00,84.9,66.0,29.86,South,180,0.0,2.0,54,0.00,,,0.00,Rainwise IP-100,2013-09-07 15:55:00,
2013-09-07 09:00:00,85.4,66.0,29.86,SSE,157,1.2,2.0,52,0.00,,,0.00,Rainwise IP-100,2013-09-07 16:00:00,
2013-09-07 09:05:00,85.3,65.0,29.86,SSW,202,2.3,3.0,51,0.00,,,0.00,Rainwise IP-100,2013-09-07 16:05:00,
2013-09-07 09:10:00,84.7,64.0,29.86,SSW,202,1.9,4.0,51,0.00,,,0.00,Rainwise IP-100,2013-09-07 16:10:00,
2013-09-07 09:15:00,84.3,64.0,29.86,South,180,0.0,3.0,51,0.00,,,0.00,Rainwise IP-100,2013-09-07 16:15:00,
2013-09-07 09:20:00,84.8,64.0,29.86,South,180,1.6,2.0,51,0.00,,,0.00,Rainwise IP-100,2013-09-07 16:20:00,
2013-09-07 09:25:00,85.3,65.0,29.86,South,180,2.3,5.0,51,0.00,,,0.00,Rainwise IP-100,2013-09-07 16:25:00,
2013-09-07 09:30:00,85.4,65.0,29.86,SSW,202,4.0,5.0,51,0.00,,,0.00,Rainwise IP-100,2013-09-07 16:30:00,
2013-09-07 09:35:00,85.6,65.0,29.87,South,180,1.6,4.0,51,0.00,,,0.00,Rainwise IP-100,2013-09-07 16:35:00,
2013-09-07 09:40:00,85.5,65.0,29.87,South,180,1.9,4.0,50,0.00,,,0.00,Rainwise IP-100,2013-09-07 16:40:00,
2013-09-07 09:45:00,85.1,63.0,29.87,SSW,202,4.9,5.0,49,0.00,,,0.00,Rainwise IP-100,2013-09-07 16:45:00,
2013-09-07 09:50:00,84.1,63.0,29.87,SW,225,2.3,5.0,49,0.00,,,0.00,Rainwise IP-100,2013-09-07 16:50:00,
2013-09-07 09:55:00,83.7,62.0,29.87,South,180,2.1,4.0,49,0.00,,,0.00,Rainwise IP-100,2013-09-07 16:55:00,
2013-09-07 10:00:00,84.0,63.0,29.88,SSW,202,4.0,6.0,49,0.00,,,0.00,Rainwise IP-100,2013-09-07 17:00:00,
2013-09-07 10:05:00,84.6,63.0,29.87,SSW,202,3.7,4.0,48,0.00,,,0.00,Rainwise IP-100,2013-09-07 17:05:00,
2013-09-07 10:10:00,85.2,63.0,29.87,SSW,202,3.3,4.0,48,0.00,,,0.00,Rainwise IP-100,2013-09-07 17:10:00,
2013-09-07 10:15:00,85.4,63.0,29.87,SSW,202,2.8,4.0,47,0.00,,,0.00,Rainwise IP-100,2013-09-07 17:15:00,
2013-09-07 10:20:00,85.8,62.0,29.87,SSW,202,2.1,5.0,46,0.00,,,0.00,Rainwise IP-100,2013-09-07 17:20:00,
2013-09-07 10:25:00,86.6,63.0,29.87,NNW,337,3.0,4.0,46,0.00,,,0.00,Rainwise IP-100,2013-09-07 17:25:00,
2013-09-07 10:30:00,87.5,65.0,29.87,SSW,202,0.0,3.0,47,0.00,,,0.00,Rainwise IP-100,2013-09-07 17:30:00,
2013-09-07 10:35:00,87.8,64.0,29.87,SSW,202,3.0,6.0,46,0.00,,,0.00,Rainwise IP-100,2013-09-07 17:35:00,
2013-09-07 10:40:00,87.3,64.0,29.87,SSW,202,2.8,5.0,46,0.00,,,0.00,Rainwise IP-100,2013-09-07 17:40:00,
2013-09-07 10:45:00,86.6,63.0,29.86,SSW,202,2.6,6.0,46,0.00,,,0.00,Rainwise IP-100,2013-09-07 17:45:00,
2013-09-07 10:50:00,86.4,63.0,29.87,SSW,202,6.1,6.1,46,0.00,,,0.00,Rainwise IP-100,2013-09-07 17:50:00,
2013-09-07 10:55:00,86.7,63.0,29.87,SSE,157,5.4,6.0,46,0.00,,,0.00,Rainwise IP-100,2013-09-07 17:55:00,
2013-09-07 11:00:00,86.6,63.0,29.87,SSW,202,2.8,6.0,46,0.00,,,0.00,Rainwise IP-100,2013-09-07 18:00:00,
2013-09-07 11:05:00,86.5,64.0,29.87,SSW,202,3.3,7.0,47,0.00,,,0.00,Rainwise IP-100,2013-09-07 18:05:00,
2013-09-07 11:10:00,86.6,64.0,29.87,WNW,292,0.0,6.0,47,0.00,,,0.00,Rainwise IP-100,2013-09-07 18:10:00,
2013-09-07 11:15:00,86.8,63.0,29.87,SSW,202,4.4,5.0,46,0.00,,,0.00,Rainwise IP-100,2013-09-07 18:15:00,
2013-09-07 11:20:00,87.1,62.0,29.87,SSW,202,3.0,5.0,44,0.00,,,0.00,Rainwise IP-100,2013-09-07 18:20:00,
2013-09-07 11:25:00,86.7,62.0,29.87,SSW,202,4.9,7.0,44,0.00,,,0.00,Rainwise IP-100,2013-09-07 18:25:00,
2013-09-07 11:30:00,85.7,62.0,29.87,SSW,202,1.6,8.0,46,0.00,,,0.00,Rainwise IP-100,2013-09-07 18:30:00,
2013-09-07 11:35:00,85.5,63.0,29.87,South,180,4.4,6.0,47,0.00,,,0.00,Rainwise IP-100,2013-09-07 18:35:00,
2013-09-07 11:40:00,85.2,62.0,29.87,SSW,202,2.8,7.0,46,0.00,,,0.00,Rainwise IP-100,2013-09-07 18:40:00,
2013-09-07 11:45:00,85.0,60.0,29.87,SSW,202,4.2,6.0,44,0.00,,,0.00,Rainwise IP-100,2013-09-07 18:45:00,
2013-09-07 11:50:00,85.5,60.0,29.87,South,180,3.3,7.0,43,0.00,,,0.00,Rainwise IP-100,2013-09-07 18:50:00,
2013-09-07 11:55:00,85.9,60.0,29.87,South,180,2.8,7.0,42,0.00,,,0.00,Rainwise IP-100,2013-09-07 18:55:00,
2013-09-07 12:00:00,86.0,61.0,29.87,South,180,2.3,7.0,43,0.00,,,0.00,Rainwise IP-100,2013-09-07 19:00:00,
2013-09-07 12:05:00,86.3,61.0,29.86,SSW,202,3.5,6.0,43,0.00,,,0.00,Rainwise IP-100,2013-09-07 19:05:00,
2013-09-07 12:10:00,86.5,62.0,29.86,SSE,157,1.6,5.0,44,0.00,,,0.00,Rainwise IP-100,2013-09-07 19:10:00,
2013-09-07 12:15:00,86.4,62.0,29.86,SSW,202,0.0,5.0,44,0.00,,,0.00,Rainwise IP-100,2013-09-07 19:15:00,
2013-09-07 12:20:00,86.1,61.0,29.86,South,180,3.3,6.0,44,0.00,,,0.00,Rainwise IP-100,2013-09-07 19:20:00,
2013-09-07 12:25:00,85.5,61.0,29.86,South,180,5.8,8.0,45,0.00,,,0.00,Rainwise IP-100,2013-09-07 19:25:00,
2013-09-07 12:30:00,84.6,61.0,29.86,SSW,202,7.5,9.0,46,0.00,,,0.00,Rainwise IP-100,2013-09-07 19:30:00,
2013-09-07 12:35:00,84.1,62.0,29.86,SSW,202,4.4,8.0,48,0.00,,,0.00,Rainwise IP-100,2013-09-07 19:35:00,
2013-09-07 12:40:00,84.2,64.0,29.85,SSW,202,7.0,7.0,50,0.00,,,0.00,Rainwise IP-100,2013-09-07 19:40:00,
2013-09-07 12:45:00,84.3,64.0,29.85,SSW,202,3.3,7.0,50,0.00,,,0.00,Rainwise IP-100,2013-09-07 19:45:00,
2013-09-07 12:50:00,84.4,64.0,29.85,SW,225,6.8,6.8,51,0.00,,,0.00,Rainwise IP-100,2013-09-07 19:50:00,
2013-09-07 12:55:00,84.0,64.0,29.85,SSW,202,3.3,8.0,51,0.00,,,0.00,Rainwise IP-100,2013-09-07 19:55:00,
2013-09-07 13:00:00,83.6,64.0,29.85,South,180,6.8,7.0,52,0.00,,,0.00,Rainwise IP-100,2013-09-07 20:00:00,
2013-09-07 13:05:00,83.5,64.0,29.84,SSW,202,3.7,10.0,52,0.00,,,0.00,Rainwise IP-100,2013-09-07 20:05:00,
2013-09-07 13:10:00,83.6,63.0,29.84,SSW,202,5.1,7.0,51,0.00,,,0.00,Rainwise IP-100,2013-09-07 20:10:00,
2013-09-07 13:15:00,83.9,63.0,29.84,WSW,247,4.9,8.0,50,0.00,,,0.00,Rainwise IP-100,2013-09-07 20:15:00,
2013-09-07 13:20:00,84.1,63.0,29.84,South,180,4.7,8.0,49,0.00,,,0.00,Rainwise IP-100,2013-09-07 20:20:00,
2013-09-07 13:25:00,84.3,62.0,29.84,SW,225,6.8,10.0,47,0.00,,,0.00,Rainwise IP-100,2013-09-07 20:25:00,
2013-09-07 13:30:00,84.5,61.0,29.84,WSW,247,2.6,8.0,45,0.00,,,0.00,Rainwise IP-100,2013-09-07 20:30:00,
2013-09-07 13:35:00,84.6,60.0,29.84,SSW,202,5.6,9.0,44,0.00,,,0.00,Rainwise IP-100,2013-09-07 20:35:00,
2013-09-07 13:40:00,84.8,60.0,29.83,SSW,202,6.8,9.0,44,0.00,,,0.00,Rainwise IP-100,2013-09-07 20:40:00,
2013-09-07 13:45:00,84.9,61.0,29.83,SSW,202,4.9,9.0,45,0.00,,,0.00,Rainwise IP-100,2013-09-07 20:45:00,
2013-09-07 13:50:00,84.9,61.0,29.84,SSW,202,1.4,7.0,45,0.00,,,0.00,Rainwise IP-100,2013-09-07 20:50:00,
2013-09-07 13:55:00,85.1,61.0,29.83,SSW,202,3.0,7.0,45,0.00,,,0.00,Rainwise IP-100,2013-09-07 20:55:00,
2013-09-07 14:00:00,85.5,62.0,29.84,SSW,202,6.3,8.0,46,0.00,,,0.00,Rainwise IP-100,2013-09-07 21:00:00,
2013-09-07 14:05:00,85.1,62.0,29.83,WSW,247,1.4,9.0,47,0.00,,,0.00,Rainwise IP-100,2013-09-07 21:05:00,
2013-09-07 14:10:00,84.3,62.0,29.83,SSW,202,5.4,10.0,47,0.00,,,0.00,Rainwise IP-100,2013-09-07 21:10:00,
2013-09-07 14:15:00,83.9,61.0,29.82,SSW,202,7.9,10.0,47,0.00,,,0.00,Rainwise IP-100,2013-09-07 21:15:00,
2013-09-07 14:20:00,83.7,62.0,29.82,SSW,202,6.5,10.0,48,0.00,,,0.00,Rainwise IP-100,2013-09-07 21:20:00,
2013-09-07 14:25:00,83.6,62.0,29.82,South,180,5.4,9.0,49,0.00,,,0.00,Rainwise IP-100,2013-09-07 21:25:00,
2013-09-07 14:30:00,83.5,62.0,29.82,South,180,8.2,8.2,49,0.00,,,0.00,Rainwise IP-100,2013-09-07 21:30:00,
2013-09-07 14:35:00,83.4,62.0,29.82,South,180,5.1,8.0,49,0.00,,,0.00,Rainwise IP-100,2013-09-07 21:35:00,
2013-09-07 14:40:00,83.6,62.0,29.82,SSW,202,4.2,8.0,48,0.00,,,0.00,Rainwise IP-100,2013-09-07 21:40:00,
2013-09-07 14:45:00,83.8,62.0,29.82,SSW,202,2.6,8.0,48,0.00,,,0.00,Rainwise IP-100,2013-09-07 21:45:00,
2013-09-07 14:50:00,84.3,62.0,29.81,SE,135,1.6,7.0,48,0.00,,,0.00,Rainwise IP-100,2013-09-07 21:50:00,
2013-09-07 14:55:00,84.6,62.0,29.81,SSE,157,6.3,10.0,47,0.00,,,0.00,Rainwise IP-100,2013-09-07 21:55:00,
2013-09-07 15:00:00,84.6,62.0,29.81,North,360,0.0,9.0,47,0.00,,,0.00,Rainwise IP-100,2013-09-07 22:00:00,
2013-09-07 15:05:00,84.6,62.0,29.81,SSW,202,2.8,7.0,47,0.00,,,0.00,Rainwise IP-100,2013-09-07 22:05:00,
2013-09-07 15:10:00,84.8,61.0,29.81,SSW,202,3.3,7.0,46,0.00,,,0.00,Rainwise IP-100,2013-09-07 22:10:00,
2013-09-07 15:15:00,85.1,62.0,29.81,SSW,202,3.3,6.0,46,0.00,,,0.00,Rainwise IP-100,2013-09-07 22:15:00,
2013-09-07 15:20:00,85.2,62.0,29.81,SSW,202,7.0,8.0,46,0.00,,,0.00,Rainwise IP-100,2013-09-07 22:20:00,
2013-09-07 15:25:00,84.7,61.0,29.81,SSW,202,3.0,8.0,46,0.00,,,0.00,Rainwise IP-100,2013-09-07 22:25:00,
2013-09-07 15:30:00,84.4,62.0,29.81,SSW,202,4.0,7.0,47,0.00,,,0.00,Rainwise IP-100,2013-09-07 22:30:00,
2013-09-07 15:35:00,84.6,62.0,29.81,SSW,202,4.7,6.0,47,0.00,,,0.00,Rainwise IP-100,2013-09-07 22:35:00,
2013-09-07 15:40:00,84.8,62.0,29.81,SSW,202,6.3,6.3,47,0.00,,,0.00,Rainwise IP-100,2013-09-07 22:40:00,
2013-09-07 15:45:00,84.8,62.0,29.81,SSW,202,4.7,6.0,47,0.00,,,0.00,Rainwise IP-100,2013-09-07 22:45:00,
2013-09-07 15:50:00,84.8,61.0,29.81,North,360,0.0,6.0,46,0.00,,,0.00,Rainwise IP-100,2013-09-07 22:50:00,
2013-09-07 15:55:00,85.2,62.0,29.81,SSW,202,1.9,7.0,46,0.00,,,0.00,Rainwise IP-100,2013-09-07 22:55:00,
2013-09-07 16:00:00,86.0,62.0,29.81,SSW,202,1.2,4.0,45,0.00,,,0.00,Rainwise IP-100,2013-09-07 23:00:00,
2013-09-07 16:05:00,86.6,62.0,29.81,SSW,202,4.0,5.0,44,0.00,,,0.00,Rainwise IP-100,2013-09-07 23:05:00,
2013-09-07 16:10:00,85.7,62.0,29.81,SSW,202,5.8,8.0,45,0.00,,,0.00,Rainwise IP-100,2013-09-07 23:10:00,
2013-09-07 16:15:00,84.7,61.0,29.81,SSW,202,1.9,7.0,46,0.00,,,0.00,Rainwise IP-100,2013-09-07 23:15:00,
2013-09-07 16:20:00,84.5,62.0,29.81,SSW,202,4.2,7.0,47,0.00,,,0.00,Rainwise IP-100,2013-09-07 23:20:00,
2013-09-07 16:25:00,84.7,62.0,29.81,SSW,202,4.0,7.0,47,0.00,,,0.00,Rainwise IP-100,2013-09-07 23:25:00,
2013-09-07 16:30:00,85.0,62.0,29.81,South,180,5.6,6.0,47,0.00,,,0.00,Rainwise IP-100,2013-09-07 23:30:00,
2013-09-07 16:35:00,85.0,62.0,29.81,SSW,202,4.7,8.0,47,0.00,,,0.00,Rainwise IP-100,2013-09-07 23:35:00,
2013-09-07 16:40:00,84.5,62.0,29.82,SSW,202,4.0,8.0,47,0.00,,,0.00,Rainwise IP-100,2013-09-07 23:40:00,
2013-09-07 16:45:00,84.2,62.0,29.82,SSE,157,3.3,7.0,48,0.00,,,0.00,Rainwise IP-100,2013-09-07 23:45:00,
2013-09-07 16:50:00,84.3,62.0,29.82,SSW,202,1.9,8.0,48,0.00,,,0.00,Rainwise IP-100,2013-09-07 23:50:00,
2013-09-07 16:55:00,84.5,63.0,29.83,SSE,157,1.6,5.0,48,0.00,,,0.00,Rainwise IP-100,2013-09-07 23:55:00,
2013-09-07 17:00:00,84.4,62.0,29.83,SSE,157,4.0,4.0,48,0.00,,,0.00,Rainwise IP-100,2013-09-08 00:00:00,
2013-09-07 17:05:00,83.0,62.0,29.82,WSW,247,0.0,7.0,49,0.00,,,0.00,Rainwise IP-100,2013-09-08 00:05:00,
2013-09-07 17:10:00,81.2,61.0,29.82,WSW,247,3.0,7.0,51,0.00,,,0.00,Rainwise IP-100,2013-09-08 00:10:00,
2013-09-07 17:15:00,80.4,62.0,29.82,SSW,202,3.7,7.0,53,0.00,,,0.00,Rainwise IP-100,2013-09-08 00:15:00,
2013-09-07 17:20:00,79.0,61.0,29.82,SSW,202,7.7,10.0,55,0.00,,,0.00,Rainwise IP-100,2013-09-08 00:20:00,
2013-09-07 17:25:00,77.4,62.0,29.81,WSW,247,4.9,9.0,60,0.00,,,0.00,Rainwise IP-100,2013-09-08 00:25:00,
2013-09-07 17:30:00,76.7,63.0,29.83,South,180,0.0,10.0,63,0.00,,,0.00,Rainwise IP-100,2013-09-08 00:30:00,
2013-09-07 17:35:00,76.6,63.0,29.83,SSW,202,6.1,6.1,64,0.00,,,0.00,Rainwise IP-100,2013-09-08 00:35:00,
2013-09-07 17:40:00,75.5,63.0,29.83,SW,225,3.3,8.0,66,0.00,,,0.00,Rainwise IP-100,2013-09-08 00:40:00,
2013-09-07 17:45:00,74.5,63.0,29.83,SSE,157,3.5,4.0,68,0.00,,,0.00,Rainwise IP-100,2013-09-08 00:45:00,
2013-09-07 17:50:00,74.3,63.0,29.82,SSW,202,3.5,5.0,69,0.00,,,0.00,Rainwise IP-100,2013-09-08 00:50:00,
2013-09-07 17:55:00,74.2,64.0,29.82,SSE,157,0.0,6.0,71,0.00,,,0.00,Rainwise IP-100,2013-09-08 00:55:00,
2013-09-07 18:00:00,74.5,64.0,29.83,ESE,112,2.3,3.0,70,0.00,,,0.00,Rainwise IP-100,2013-09-08 01:00:00,
2013-09-07 18:05:00,74.5,64.0,29.83,SW,225,1.4,4.0,70,0.00,,,0.00,Rainwise IP-100,2013-09-08 01:05:00,
2013-09-07 18:10:00,73.9,64.0,29.84,SSE,157,1.9,5.0,71,0.00,,,0.00,Rainwise IP-100,2013-09-08 01:10:00,
2013-09-07 18:15:00,73.5,64.0,29.84,SSW,202,3.7,3.7,72,0.00,,,0.00,Rainwise IP-100,2013-09-08 01:15:00,
2013-09-07 18:20:00,72.7,64.0,29.84,SSW,202,2.8,8.0,74,0.00,,,0.00,Rainwise IP-100,2013-09-08 01:20:00,
2013-09-07 18:25:00,72.1,64.0,29.85,ESE,112,1.2,4.0,76,0.00,,,0.00,Rainwise IP-100,2013-09-08 01:25:00,
2013-09-07 18:30:00,71.8,64.0,29.84,SSW,202,4.4,5.0,77,0.00,,,0.00,Rainwise IP-100,2013-09-08 01:30:00,
2013-09-07 18:35:00,71.0,63.0,29.85,SSW,202,1.6,5.0,78,0.00,,,0.00,Rainwise IP-100,2013-09-08 01:35:00,
2013-09-07 18:40:00,70.6,64.0,29.84,SW,225,0.0,4.0,80,0.00,,,0.00,Rainwise IP-100,2013-09-08 01:40:00,
2013-09-07 18:45:00,70.3,64.0,29.85,SSW,202,2.3,4.0,81,0.00,,,0.00,Rainwise IP-100,2013-09-08 01:45:00,
2013-09-07 18:50:00,70.2,64.0,29.84,South,180,2.6,4.0,82,0.00,,,0.00,Rainwise IP-100,2013-09-08 01:50:00,
2013-09-07 18:55:00,70.1,64.0,29.85,South,180,1.9,4.0,82,0.00,,,0.00,Rainwise IP-100,2013-09-08 01:55:00,
2013-09-07 19:00:00,69.9,64.0,29.85,SSW,202,1.4,3.0,83,0.00,,,0.00,Rainwise IP-100,2013-09-08 02:00:00,
2013-09-07 19:05:00,69.8,64.0,29.85,SSW,202,4.2,4.2,83,0.00,,,0.00,Rainwise IP-100,2013-09-08 02:05:00,
2013-09-07 19:10:00,69.8,64.0,29.84,ESE,112,0.0,4.0,84,0.00,,,0.00,Rainwise IP-100,2013-09-08 02:10:00,
2013-09-07 19:15:00,69.8,64.0,29.85,SSW,202,1.4,3.0,84,0.00,,,0.00,Rainwise IP-100,2013-09-08 02:15:00,
2013-09-07 19:20:00,69.7,64.0,29.84,South,180,1.4,4.0,84,0.00,,,0.00,Rainwise IP-100,2013-09-08 02:20:00,
2013-09-07 19:25:00,69.6,64.0,29.85,SE,135,0.0,4.0,84,0.00,,,0.00,Rainwise IP-100,2013-09-08 02:25:00,
2013-09-07 19:30:00,69.4,64.0,29.85,South,180,2.1,2.1,85,0.00,,,0.00,Rainwise IP-100,2013-09-08 02:30:00,
2013-09-07 19:35:00,69.2,64.0,29.85,SW,225,0.0,3.0,85,0.00,,,0.00,Rainwise IP-100,2013-09-08 02:35:00,
2013-09-07 19:40:00,69.0,64.0,29.85,SW,225,0.0,1.0,85,0.00,,,0.00,Rainwise IP-100,2013-09-08 02:40:00,
2013-09-07 19:45:00,68.9,64.0,29.85,SW,225,0.0,1.0,86,0.00,,,0.00,Rainwise IP-100,2013-09-08 02:45:00,
2013-09-07 19:50:00,68.8,64.0,29.85,SW,225,0.0,0.0,86,0.00,,,0.00,Rainwise IP-100,2013-09-08 02:50:00,
2013-09-07 19:55:00,68.7,64.0,29.86,SW,225,0.0,0.0,86,0.00,,,0.00,Rainwise IP-100,2013-09-08 02:55:00,
2013-09-07 20:00:00,68.7,64.0,29.85,SSW,202,0.0,0.0,86,0.00,,,0.00,Rainwise IP-100,2013-09-08 03:00:00,
2013-09-07 20:05:00,68.6,64.0,29.85,SSW,202,0.0,0.0,86,0.00,,,0.00,Rainwise IP-100,2013-09-08 03:05:00,
2013-09-07 20:10:00,68.5,64.0,29.86,SSW,202,0.0,0.0,86,0.00,,,0.00,Rainwise IP-100,2013-09-08 03:10:00,
2013-09-07 20:15:00,68.4,64.0,29.86,SSW,202,0.0,0.0,86,0.00,,,0.00,Rainwise IP-100,2013-09-08 03:15:00,
2013-09-07 20:20:00,68.1,63.0,29.86,SSW,202,0.0,0.0,86,0.00,,,0.00,Rainwise IP-100,2013-09-08 03:20:00,
2013-09-07 20:25:00,67.9,63.0,29.86,SSW,202,1.2,1.2,86,0.00,,,0.00,Rainwise IP-100,2013-09-08 03:25:00,
2013-09-07 20:30:00,67.9,63.0,29.86,SSW,202,0.0,1.0,86,0.00,,,0.00,Rainwise IP-100,2013-09-08 03:30:00,
2013-09-07 20:35:00,67.9,63.0,29.86,SSW,202,0.0,1.0,86,0.00,,,0.00,Rainwise IP-100,2013-09-08 03:35:00,
2013-09-07 20:40:00,67.8,63.0,29.86,SSW,202,0.0,0.0,87,0.00,,,0.00,Rainwise IP-100,2013-09-08 03:40:00,
2013-09-07 20:45:00,67.8,63.0,29.87,SSW,202,0.0,1.0,87,0.00,,,0.00,Rainwise IP-100,2013-09-08 03:45:00,
2013-09-07 20:50:00,67.6,63.0,29.87,SSW,202,0.0,0.0,87,0.00,,,0.00,Rainwise IP-100,2013-09-08 03:50:00,
2013-09-07 20:55:00,67.6,63.0,29.87,SSW,202,0.0,0.0,87,0.00,,,0.00,Rainwise IP-100,2013-09-08 03:55:00,
2013-09-07 21:00:00,67.5,64.0,29.87,SSW,202,0.0,0.0,88,0.00,,,0.00,Rainwise IP-100,2013-09-08 04:00:00,
2013-09-07 21:01:00,67.4,64.0,29.87,SSW,202,0.0,0.0,88,0.00,,,0.00,Rainwise IP-100,2013-09-08 04:01:00,
2013-09-07 21:06:00,67.2,63.0,29.87,SSW,202,0.0,0.0,88,0.00,,,0.00,Rainwise IP-100,2013-09-08 04:06:00,
2013-09-07 21:11:00,67.1,63.0,29.87,SSW,202,0.0,0.0,87,0.00,,,0.00,Rainwise IP-100,2013-09-08 04:11:00,
2013-09-07 21:16:00,67.1,63.0,29.87,SSW,202,0.0,0.0,87,0.00,,,0.00,Rainwise IP-100,2013-09-08 04:16:00,
2013-09-07 21:21:00,67.0,63.0,29.88,SSW,202,0.0,1.0,87,0.00,,,0.00,Rainwise IP-100,2013-09-08 04:21:00,
2013-09-07 21:26:00,66.9,63.0,29.88,SSW,202,0.0,0.0,88,0.00,,,0.00,Rainwise IP-100,2013-09-08 04:26:00,
2013-09-07 21:31:00,67.0,63.0,29.88,SSW,202,0.0,1.0,88,0.00,,,0.00,Rainwise IP-100,2013-09-08 04:31:00,
2013-09-07 21:36:00,66.9,63.0,29.88,SSW,202,1.2,1.2,88,0.00,,,0.00,Rainwise IP-100,2013-09-08 04:36:00,
2013-09-07 21:41:00,66.8,63.0,29.88,SSW,202,1.4,1.4,88,0.00,,,0.00,Rainwise IP-100,2013-09-08 04:41:00,
2013-09-07 21:46:00,66.8,63.0,29.88,SSW,202,0.0,2.0,88,0.00,,,0.00,Rainwise IP-100,2013-09-08 04:46:00,
2013-09-07 21:51:00,66.9,63.0,29.88,SSE,157,1.6,2.0,88,0.00,,,0.00,Rainwise IP-100,2013-09-08 04:51:00,
2013-09-07 21:56:00,67.0,63.0,29.88,SSE,157,0.0,1.0,88,0.00,,,0.00,Rainwise IP-100,2013-09-08 04:56:00,
2013-09-07 22:01:00,67.0,63.0,29.88,SSE,157,0.0,0.0,88,0.00,,,0.00,Rainwise IP-100,2013-09-08 05:01:00,
2013-09-07 22:06:00,66.8,63.0,29.88,SSE,157,0.0,0.0,88,0.00,,,0.00,Rainwise IP-100,2013-09-08 05:06:00,
2013-09-07 22:11:00,66.7,63.0,29.88,SSE,157,0.0,0.0,88,0.00,,,0.00,Rainwise IP-100,2013-09-08 05:11:00,
2013-09-07 22:16:00,66.4,62.0,29.88,SSE,157,0.0,0.0,88,0.00,,,0.00,Rainwise IP-100,2013-09-08 05:16:00,
2013-09-07 22:21:00,66.3,62.0,29.88,SSE,157,0.0,0.0,88,0.00,,,0.00,Rainwise IP-100,2013-09-08 05:21:00,
2013-09-07 22:26:00,66.2,62.0,29.88,SSE,157,0.0,0.0,88,0.00,,,0.00,Rainwise IP-100,2013-09-08 05:26:00,
2013-09-07 22:31:00,66.0,62.0,29.87,SSE,157,0.0,0.0,88,0.00,,,0.00,Rainwise IP-100,2013-09-08 05:31:00,
2013-09-07 22:36:00,65.8,61.0,29.88,SSE,157,0.0,1.0,88,0.00,,,0.00,Rainwise IP-100,2013-09-08 05:36:00,
2013-09-07 22:41:00,65.7,61.0,29.88,SSE,157,0.0,0.0,88,0.00,,,0.00,Rainwise IP-100,2013-09-08 05:41:00,
2013-09-07 22:46:00,65.7,62.0,29.88,SSE,157,0.0,0.0,89,0.00,,,0.00,Rainwise IP-100,2013-09-08 05:46:00,
2013-09-07 22:51:00,65.8,62.0,29.88,SSE,157,0.0,1.0,89,0.00,,,0.00,Rainwise IP-100,2013-09-08 05:51:00,
2013-09-07 22:56:00,65.7,62.0,29.88,SSE,157,0.0,0.0,89,0.00,,,0.00,Rainwise IP-100,2013-09-08 05:56:00,
2013-09-07 23:01:00,65.7,62.0,29.88,SSE,157,0.0,0.0,89,0.00,,,0.00,Rainwise IP-100,2013-09-08 06:01:00,
2013-09-07 23:06:00,65.7,62.0,29.88,SSE,157,0.0,0.0,89,0.00,,,0.00,Rainwise IP-100,2013-09-08 06:06:00,
2013-09-07 23:11:00,65.6,62.0,29.88,SSE,157,0.0,0.0,89,0.00,,,0.00,Rainwise IP-100,2013-09-08 06:11:00,
2013-09-07 23:16:00,65.4,62.0,29.87,SSE,157,0.0,0.0,89,0.00,,,0.00,Rainwise IP-100,2013-09-08 06:16:00,
2013-09-07 23:21:00,65.3,61.0,29.87,SSE,157,0.0,0.0,89,0.00,,,0.00,Rainwise IP-100,2013-09-08 06:21:00,
2013-09-07 23:26:00,65.2,61.0,29.87,SSE,157,0.0,0.0,89,0.00,,,0.00,Rainwise IP-100,2013-09-08 06:26:00,
2013-09-07 23:31:00,65.2,62.0,29.87,SSE,157,0.0,0.0,90,0.00,,,0.00,Rainwise IP-100,2013-09-08 06:31:00,
2013-09-07 23:36:00,65.3,62.0,29.87,SSE,157,0.0,0.0,90,0.00,,,0.00,Rainwise IP-100,2013-09-08 06:36:00,
2013-09-07 23:41:00,65.3,62.0,29.88,SSE,157,0.0,0.0,90,0.00,,,0.00,Rainwise IP-100,2013-09-08 06:41:00,
2013-09-07 23:46:00,65.2,62.0,29.86,SSE,157,0.0,0.0,90,0.00,,,0.00,Rainwise IP-100,2013-09-08 06:46:00,
2013-09-07 23:51:00,65.1,62.0,29.87,SSE,157,0.0,0.0,91,0.00,,,0.00,Rainwise IP-100,2013-09-08 06:51:00,
2013-09-07 23:56:00,65.0,62.0,29.87,SSE,157,0.0,0.0,91,0.00,,,0.00,Rainwise IP-100,2013-09-08 06:56:00,